• In Schweiz
  • Länderverzeichnis
  • Für 7 Tage
  • Wassertemperatur
  • Satellitenkarten
  • Wetterkarte
  • Widgets
  • user-avatar
    Anmelden

    Stündliche Wetter Nagretdinovo

    Heute, 16 Juli, Montag

    Zeit Temperatur Niederschläge Wind Luftdruck Luftfeuchtigkeit
    00:00 +19°C° 0 mm 3 m/S 739 mmHg 86%
    01:00 +18°C° 0 mm 3 m/S 739 mmHg 88%
    02:00 +18°C° 0 mm 2 m/S 739 mmHg 90%
    03:00 +17°C° 0 mm 2 m/S 739 mmHg 91%
    04:00 +18°C° 0 mm 3 m/S 739 mmHg 94%
    05:00 +19°C° 0 mm 3 m/S 739 mmHg 90%
    06:00 +20°C° 0 mm 2 m/S 739 mmHg 86%
    07:00 +23°C° 0 mm 2 m/S 740 mmHg 82%
    08:00 +24°C° 0,1 mm 2 m/S 740 mmHg 76%
    09:00 +26°C° 0,1 mm 2 m/S 740 mmHg 70%
    10:00 +27°C° 0,1 mm 2 m/S 740 mmHg 64%
    11:00 +28°C° 0 mm 2 m/S 740 mmHg 61%
    12:00 +28°C° 0 mm 2 m/S 740 mmHg 58%
    13:00 +29°C° 0 mm 2 m/S 740 mmHg 55%
    14:00 +29°C° 0 mm 2 m/S 739 mmHg 55%
    15:00 +29°C° 0 mm 2 m/S 739 mmHg 54%
    16:00 +29°C° 0 mm 2 m/S 739 mmHg 53%
    17:00 +28°C° 0 mm 1 m/S 739 mmHg 59%
    18:00 +28°C° 0 mm 1 m/S 739 mmHg 64%
    19:00 +27°C° 0 mm 1 m/S 739 mmHg 69%
    20:00 +25°C° 0 mm 1 m/S 739 mmHg 73%
    21:00 +23°C° 0 mm 2 m/S 739 mmHg 76%
    22:00 +21°C° 0 mm 2 m/S 740 mmHg 79%
    23:00 +20°C° 0 mm 2 m/S 740 mmHg 81%

    Morgen, 17 Juli, Dienstag

    Zeit Temperatur Niederschläge Wind Luftdruck Luftfeuchtigkeit
    00:00 +19°C° 0 mm 2 m/S 740 mmHg 82%
    01:00 +19°C° 0 mm 2 m/S 740 mmHg 84%
    02:00 +18°C° 0 mm 2 m/S 740 mmHg 85%
    03:00 +17°C° 0 mm 2 m/S 740 mmHg 87%
    04:00 +17°C° 0 mm 2 m/S 740 mmHg 88%
    05:00 +18°C° 0 mm 2 m/S 740 mmHg 85%
    06:00 +19°C° 0 mm 2 m/S 740 mmHg 82%
    07:00 +20°C° 0 mm 2 m/S 740 mmHg 79%
    08:00 +21°C° 0 mm 2 m/S 740 mmHg 73%
    09:00 +24°C° 0 mm 2 m/S 740 mmHg 67%
    10:00 +25°C° 0 mm 2 m/S 740 mmHg 61%
    11:00 +26°C° 0 mm 2 m/S 739 mmHg 59%
    12:00 +26°C° 0 mm 2 m/S 739 mmHg 57%
    13:00 +27°C° 0 mm 3 m/S 739 mmHg 55%
    14:00 +27°C° 0 mm 2 m/S 739 mmHg 58%
    15:00 +26°C° 0 mm 2 m/S 739 mmHg 62%
    16:00 +26°C° 0 mm 1 m/S 738 mmHg 66%
    17:00 +25°C° 0 mm 2 m/S 738 mmHg 68%
    18:00 +25°C° 0 mm 2 m/S 738 mmHg 71%
    19:00 +24°C° 0 mm 2 m/S 738 mmHg 74%
    20:00 +23°C° 0 mm 2 m/S 738 mmHg 74%
    21:00 +23°C° 0 mm 2 m/S 738 mmHg 74%
    22:00 +21°C° 0 mm 3 m/S 738 mmHg 74%
    23:00 +21°C° 0,4 mm 2 m/S 738 mmHg 80%

    übermorgen, 18 Juli, Mittwoch

    Zeit Temperatur Niederschläge Wind Luftdruck Luftfeuchtigkeit
    00:00 +20°C° 0,4 mm 2 m/S 738 mmHg 85%
    01:00 +19°C° 0,4 mm 2 m/S 738 mmHg 91%
    02:00 +19°C° 0,9 mm 2 m/S 738 mmHg 92%
    03:00 +19°C° 0,9 mm 2 m/S 738 mmHg 94%
    04:00 +19°C° 0,9 mm 2 m/S 738 mmHg 96%
    05:00 +19°C° 0,5 mm 3 m/S 738 mmHg 94%
    06:00 +19°C° 0,5 mm 3 m/S 737 mmHg 93%
    07:00 +19°C° 0,5 mm 4 m/S 737 mmHg 92%
    08:00 +20°C° 0,1 mm 4 m/S 737 mmHg 88%
    09:00 +21°C° 0,1 mm 4 m/S 737 mmHg 83%
    10:00 +22°C° 0,1 mm 4 m/S 737 mmHg 79%
    11:00 +23°C° 0 mm 4 m/S 737 mmHg 73%
    12:00 +26°C° 0 mm 4 m/S 737 mmHg 68%
    13:00 +27°C° 0 mm 4 m/S 737 mmHg 62%
    14:00 +28°C° 0,2 mm 4 m/S 737 mmHg 63%
    15:00 +28°C° 0,2 mm 4 m/S 737 mmHg 63%
    16:00 +29°C° 0,2 mm 3 m/S 737 mmHg 64%
    17:00 +27°C° 0,5 mm 3 m/S 737 mmHg 70%
    18:00 +26°C° 0,5 mm 3 m/S 737 mmHg 76%
    19:00 +24°C° 0,5 mm 3 m/S 738 mmHg 82%
    20:00 +22°C° 0,4 mm 3 m/S 738 mmHg 86%
    21:00 +21°C° 0,4 mm 3 m/S 738 mmHg 89%
    22:00 +20°C° 0,4 mm 3 m/S 738 mmHg 92%
    23:00 +19°C° 0,3 mm 3 m/S 738 mmHg 94%

    19 Juli, Donnerstag

    Zeit Temperatur Niederschläge Wind Luftdruck Luftfeuchtigkeit
    00:00 +19°C° 0,3 mm 3 m/S 738 mmHg 95%
    01:00 +18°C° 0,3 mm 2 m/S 738 mmHg 96%
    02:00 +18°C° 0,3 mm 2 m/S 738 mmHg 96%
    03:00 +18°C° 0,3 mm 2 m/S 738 mmHg 96%
    04:00 +17°C° 0,3 mm 2 m/S 738 mmHg 96%
    05:00 +18°C° 0 mm 3 m/S 738 mmHg 94%
    06:00 +19°C° 0 mm 3 m/S 738 mmHg 92%
    07:00 +20°C° 0 mm 3 m/S 738 mmHg 90%
    08:00 +22°C° 0 mm 3 m/S 738 mmHg 83%
    09:00 +24°C° 0 mm 2 m/S 738 mmHg 76%
    10:00 +26°C° 0 mm 2 m/S 739 mmHg 69%
    11:00 +27°C° 0 mm 2 m/S 738 mmHg 66%
    12:00 +27°C° 0 mm 2 m/S 738 mmHg 63%
    13:00 +28°C° 0 mm 2 m/S 738 mmHg 60%
    14:00 +28°C° 0,3 mm 2 m/S 738 mmHg 63%
    15:00 +28°C° 0,3 mm 2 m/S 738 mmHg 67%
    16:00 +27°C° 0,3 mm 2 m/S 738 mmHg 70%
    17:00 +26°C° 0,4 mm 2 m/S 738 mmHg 76%
    18:00 +25°C° 0,4 mm 2 m/S 738 mmHg 81%
    19:00 +24°C° 0,4 mm 2 m/S 738 mmHg 87%
    20:00 +23°C° 0,1 mm 2 m/S 739 mmHg 89%
    21:00 +21°C° 0,1 mm 2 m/S 739 mmHg 92%
    22:00 +19°C° 0,1 mm 2 m/S 739 mmHg 94%
    23:00 +19°C° 0 mm 2 m/S 739 mmHg 95%

    20 Juli, Freitag

    Zeit Temperatur Niederschläge Wind Luftdruck Luftfeuchtigkeit
    00:00 +18°C° 0 mm 2 m/S 739 mmHg 95%
    01:00 +18°C° 0 mm 2 m/S 739 mmHg 96%
    02:00 +17°C° 0 mm 2 m/S 739 mmHg 96%
    03:00 +17°C° 0 mm 2 m/S 739 mmHg 96%
    04:00 +17°C° 0 mm 2 m/S 739 mmHg 96%
    05:00 +18°C° 0 mm 2 m/S 739 mmHg 94%
    06:00 +18°C° 0 mm 3 m/S 739 mmHg 93%
    07:00 +19°C° 0 mm 3 m/S 739 mmHg 91%
    08:00 +21°C° 0 mm 3 m/S 739 mmHg 86%
    09:00 +22°C° 0 mm 3 m/S 739 mmHg 80%
    10:00 +25°C° 0 mm 3 m/S 739 mmHg 75%
    11:00 +25°C° 0,6 mm 3 m/S 739 mmHg 74%
    12:00 +26°C° 0,6 mm 3 m/S 739 mmHg 73%
    13:00 +27°C° 0,6 mm 4 m/S 739 mmHg 72%
    14:00 +27°C° 0,6 mm 3 m/S 739 mmHg 72%
    15:00 +27°C° 0,6 mm 3 m/S 739 mmHg 73%
    16:00 +27°C° 0,6 mm 3 m/S 739 mmHg 73%
    17:00 +26°C° 0,3 mm 3 m/S 739 mmHg 77%
    18:00 +25°C° 0,3 mm 3 m/S 739 mmHg 80%
    19:00 +24°C° 0,3 mm 3 m/S 739 mmHg 84%
    20:00 +22°C° 0 mm 3 m/S 739 mmHg 85%
    21:00 +21°C° 0 mm 3 m/S 739 mmHg 86%
    22:00 +20°C° 0 mm 3 m/S 740 mmHg 88%
    23:00 +19°C° 0 mm 4 m/S 740 mmHg 87%

    21 Juli, Samstag

    Zeit Temperatur Niederschläge Wind Luftdruck Luftfeuchtigkeit
    00:00 +19°C° 0 mm 4 m/S 740 mmHg 87%
    01:00 +19°C° 0 mm 4 m/S 740 mmHg 86%
    02:00 +19°C° 0 mm 4 m/S 740 mmHg 86%
    03:00 +18°C° 0 mm 4 m/S 740 mmHg 85%
    04:00 +18°C° 0 mm 4 m/S 740 mmHg 85%
    05:00 +18°C° 0 mm 4 m/S 741 mmHg 82%
    06:00 +19°C° 0 mm 4 m/S 741 mmHg 79%
    07:00 +19°C° 0 mm 5 m/S 741 mmHg 76%
    08:00 +21°C° 0 mm 5 m/S 741 mmHg 70%
    09:00 +22°C° 0 mm 5 m/S 741 mmHg 64%
    10:00 +23°C° 0 mm 5 m/S 741 mmHg 59%
    11:00 +25°C° 0 mm 5 m/S 742 mmHg 56%
    12:00 +26°C° 0 mm 5 m/S 742 mmHg 54%
    13:00 +26°C° 0 mm 5 m/S 742 mmHg 51%
    14:00 +26°C° 0 mm 5 m/S 742 mmHg 52%
    15:00 +27°C° 0 mm 5 m/S 742 mmHg 53%
    16:00 +27°C° 0 mm 5 m/S 742 mmHg 54%
    17:00 +25°C° 0 mm 4 m/S 742 mmHg 59%
    18:00 +23°C° 0 mm 4 m/S 742 mmHg 63%
    19:00 +22°C° 0 mm 4 m/S 742 mmHg 68%
    20:00 +21°C° 0 mm 4 m/S 742 mmHg 68%
    21:00 +20°C° 0 mm 4 m/S 743 mmHg 69%
    22:00 +19°C° 0 mm 5 m/S 743 mmHg 69%
    23:00 +18°C° 0 mm 4 m/S 743 mmHg 72%
    Mehr zeigen